Regional Weather Roundup
Issued by NWS Newport/Morehead, NC

Current Version | Previous Version | Text Only | Print | Product List | Glossary Off
Versions: 1 2 3 4 5 6 7 8 9 10 11 12 13 14 15 16 17 18 19 20 21 22 23 24 25 26 27 28 29 30 31 32 33 34 35 36 37 38 39 40 41 42 43 44 45 46 47 48 49 50
000 ASUS42 KMHX 190513 RWRMHX WEATHER ROUNDUP FOR EASTERN NORTH CAROLINA NATIONAL WEATHER SERVICE NEWPORT/MOREHEAD CITY NC 100 AM EDT THU OCT 19 2017 NOTE: "FAIR" INDICATES FEW OR NO CLOUDS BELOW 12,000 FEET WITH NO SIGNIFICANT WEATHER AND/OR OBSTRUCTIONS TO VISIBILITY NCZ015>017-031-032-045>047-102-103-190600- NORTH COAST CITY SKY/WX TMP DP RH WIND PRES REMARKS EDENTON CLEAR 54 52 93 CALM 30.31F ELIZABETH CITY CLEAR 59 56 89 N6 30.31F KITTY HAWK CLEAR 64 56 75 CALM 30.29S MANTEO CLEAR N/A N/A N/A NE6 30.30S $$ NCZ045>047-081-094-103-104-190600- CENTRAL COAST CITY SKY/WX TMP DP RH WIND PRES REMARKS FRISCO CLEAR 66 62 87 NE7 30.26F $$ NCZ095-097-098-100-101-190600- SOUTHERN COAST CITY SKY/WX TMP DP RH WIND PRES REMARKS BEAUFORT PTCLDY 62 59 90 N9 30.26F CEDAR ISLAND NOT AVBL JACKSONVILLE MOCLDY 59 57 93 N7 30.27F PINEY ISLAND N/A N/A N/A N/A N12 30.27S WILMINGTON CLEAR 57 54 89 NE5 30.27F $$ NCZ011>013-027>030-043-044-078>080-089-090>093-098-190600- COASTAL PLAIN CITY SKY/WX TMP DP RH WIND PRES REMARKS AHOSKIE CLEAR 46 46 100 CALM 30.32S CLINTON CLEAR 52 51 96 CALM 30.30F ELIZABETHTOWN NOT AVBL GOLDSBORO CLEAR 52 49 91 CALM 30.28F GREENVILLE CLEAR 52 52 100 CALM 30.31S FOG HAVELOCK CLOUDY 62 58 86 N10 30.29S KENANSVILLE CLEAR 48 46 93 CALM 30.30S KINSTON CLEAR 51 50 97 CALM 30.30F NEW BERN MOCLDY 60 57 89 NE5 30.30S RICHLANDS CLEAR 53 53 100 CALM 30.29F ROCKY MOUNT CLEAR 48 48 100 CALM 30.31F FOG WASHINGTON PTCLDY 52 50 93 NE3 30.30F WHITEVILLE PTCLDY 56 50 80 CALM 30.27F $$ AMZ130-135-150-152-154-156-158-170-250-252-270-ANZ085-086-088-633-658-670-190600- MARINE OBSERVATIONS STATION/POSITION TIME TEMP WIND PRES WAVE SWELL AIR SEA DIR/SP/G HT/PER HT/PER (UTC) (F) (DEG/KT/KT) (MB) (FT/S) (FT/S) CHESAPEAKE LIGHT NOT AVBL 64 E VA BEACH 0450 66 67 70/ 10/ 12 1026.4 4/ 8 3/ 8 DUCK 0448 66 69 40/ 7/ 9 1025.7 2 E DUCK 0500 69 N/A 3/10 2/11 OREGON INLET 0442 67 65 40/ 9/ 13 1025.4 13E OREGON INLT 0448 71 N/A 5/10 5/10 HATTERAS CG 0448 67 68 50/ 7/ 10 1024.6 DIAMOND BUOY 0450 74 81 110/ 16/ 17 1024.0 5/ 9 3/ 9 CAPE LOOKOUT 0500 64 360/ 12/ 15 1024.1 BEAUFORT LAB 0448 63 69 20/ 8/ 12 1025.0 30 SE NEW RVR IN NOT AVBL 30 SE NEW RVR IN NOT AVBL 27 SE WRIGHTSVLE 0408 71 77 60/ 17/ 23 1023.9 5 SE WRIGHTSVLE 0408 69 74 40/ 16/ 23 1024.7 225 S CAPE HAT 0450 77 80 70/ 19/ 21 1020.0 9/ 7 2/13 41 SE CHARLESTON 0500 74 79 30/ 19/ 25 1022.0 $$

USA.gov is the U.S. government's official web portal to all federal, state and local government web resources and services.